Location: Seattle
(47.6064°N, 122.3308°W)
Time: 05:04:48
(UTC-08:00)

N. Korean satellite - Pass Details

Date: 09 December 2022
Orbit: 407 x 441 km, 97.3° (Epoch: 05 February)

Event Time Altitude Azimuth Distance (km) Brightness Sun altitude
Rises 04:36:49 0° 28° (NNE) 2,502 10.5 -30.8°
Reaches altitude 10° 04:39:26 10° 49° (NE) 1,611 9.7 -30.3°
Maximum altitude 04:41:46 17° 92° (E) 1,227 9.4 -29.9°
Drops below altitude 10° 04:44:05 10° 135° (SE) 1,580 9.7 -29.5°
Sets 04:46:36 0° 156° (SSE) 2,431 10.5 -29.1°
